Regional Weather Roundup
Issued by NWS

Home | Current Version | Previous Version | Graphics & Text | Print | Product List | Glossary Off
Versions: 1 2 3 4 5 6 7 8 9 10 11 12 13 14 15 16 17 18 19 20 21 22 23 24 25 26 27 28 29 30 31 32 33 34 35 36 37 38 39 40 41 42 43 44 45 46 47 48 49 50

000
ASUS43 KMPX 030601
RWRMN
WEATHER ROUNDUP FOR MINNESOTA
NATIONAL WEATHER SERVICE TWIN CITIES/CHANHASSEN MN
100 AM CDT SUN MAY 03 2015


NOTE: "FAIR" INDICATES FEW OR NO CLOUDS BELOW 12,000 FEET WITH NO
SIGNIFICANT WEATHER AND/OR OBSTRUCTIONS TO VISIBILITY. N/A MEANS
CURRENT SKY AND/OR WEATHER CONDITIONS ARE NOT AVAILABLE.

MNZ060>063-068>070-030700-
   Twin Cities Metro

CITY           SKY/WX    TMP DP  RH WIND       PRES   REMARKS
TWIN CITIES    CLEAR     66  51  58 S12G17    29.79R
6HR MIN TEMP:  66; 6HR MAX TEMP:  78;

ST PAUL        CLEAR     64  52  64 S10       29.80R
CRYSTAL        CLEAR     66  52  60 S12       29.76S
BLAINE         CLEAR     66  54  63 S16       29.77S
LAKEVILLE      CLEAR     61  52  72 S10       29.79F
EDEN PRAIRIE   CLEAR     63  51  65 S12       29.77S
6HR MIN TEMP:  63; 6HR MAX TEMP:  78;

SOUTH ST PAUL  CLEAR     65  51  60 S13       29.79S
LAKE ELMO      FAIR      63  52  67 S13       29.80F
$$
MNZ001>005-007-008-013>017-022>024-027-028-030700-
   Northwest Minnesota

CITY           SKY/WX    TMP DP  RH WIND       PRES   REMARKS
BEMIDJI        PTCLDY    61  44  54 S10       29.62S
HALLOCK        PTCLDY    57  37  47 N15       29.61R
ROSEAU         CLEAR     63  45  51 W5        29.62S
WARROAD        PTCLDY    57  46  67 CALM      29.62S
THIEF RVR FALL CLEAR     55  46  71 S5        29.62R
CROOKSTON      CLEAR     54  46  76 SW6       29.61S
DETROIT LAKES  MOCLDY    61  50  67 S9        29.65F
MOORHEAD       PTCLDY    61  52  72 S12       29.63R
PARK RAPIDS    MOCLDY    61  47  59 S13       29.65R
MAHNOMEN       FAIR      62  47  59 S16       29.60F
$$
MNZ006-009>011-018-025>026-030700-
   North Central Minnesota

CITY           SKY/WX    TMP DP  RH WIND       PRES   REMARKS
BAUDETTE       CLOUDY    62  45  53 N6        29.62R
FLAG ISLAND    CLOUDY    54  50  87 S5        29.60R
INTL FALLS     CLOUDY    57  38  48 CALM      29.62S
6HR MIN TEMP:  56; 6HR MAX TEMP:  76;

WASKISH        MOCLDY    64  45  48 CALM      29.60F
BIG FORK       MOCLDY    57  45  62 CALM      29.64F
LONGVILLE      CLOUDY    64  43  45 S7        29.64F
GRAND RAPIDS   CLOUDY    61  39  44 NE3       29.68R
CRANE LAKE     CLOUDY    63  36  36 S3        29.65S
ORR            CLOUDY    64  36  34 S10G24    29.61F
COOK           CLOUDY    64  41  42 S8        29.66F
WALKER         FAIR      64  44  48 S9G17     29.62F THUNDER
$$
MNZ012-019>021-037-030700-
   Northeast Minnesota

CITY           SKY/WX    TMP DP  RH WIND       PRES   REMARKS
DULUTH         MOCLDY    52  42  69 SE9       29.70F
6HR MIN TEMP:  52; 6HR MAX TEMP:  69;

ELY            CLOUDY    61  39  44 S6        29.69R
HIBBING        CLOUDY    64  40  41 N6        29.70R
EVELETH        CLOUDY    59  41  51 W5        29.72R
DULUTH HARBOR  MOCLDY    45  41  87 N7        29.72F
TWO HARBORS    CLOUDY    50  43  76 CALM      29.70F
SILVER BAY     CLOUDY    46  41  81 CALM      29.70S
GRAND MARAIS     N/A     43  39  86 CALM      29.71F
G MARAIS ARPRT MOCLDY    52  36  54 CALM      29.73F
$$
MNZ029>031-032-039>041-046>048-054>057-064-030700-
   West Central Minnesota

CITY           SKY/WX    TMP DP  RH WIND       PRES   REMARKS
FERGUS FALLS   CLOUDY    61  54  77 S8        29.70R
WHEATON        CLOUDY    63  48  59 S10       29.69R
MORRIS         CLOUDY    61  54  77 SE7       29.72S THUNDER
ALEXANDRIA     CLOUDY    59  52  77 SE13      29.72S
ELBOW LAKE     MOCLDY    60  53  78 SE13      29.67S
WADENA         MOCLDY    61  48  63 SE6       29.66S THUNDER
GLENWOOD       MOCLDY    57  52  82 SE9       29.73S
APPLETON       MOCLDY    64  50  59 NW15      29.74R
BENSON         MOCLDY    63  48  59 E3        29.73R
ORTONVILLE     LGT RAIN  66  52  59 W3        29.74R
MADISON        MOCLDY    64  50  59 SE8       29.69R
WILLMAR        FAIR      63  52  67 CALM      29.74R
$$
MNZ033>034-036-042>043-049>051-058-059-030700-
   Central Minnesota

CITY           SKY/WX    TMP DP  RH WIND       PRES   REMARKS
ST CLOUD       PTCLDY    58  47  66 VRB5      29.73F
6HR MIN TEMP:  58; 6HR MAX TEMP:  77;

SAUK CENTRE    FAIR      59  50  71 SE6       29.72S
PAYNESVILLE    PTCLDY    60  47  63 NE3       29.75R
AITKIN         CLOUDY    66  43  42 S6        29.63F
PINE RIVER     MOCLDY    64  46  52 S6        29.68F
BRAINERD       MOCLDY    57  50  77 S7        29.66F
STAPLES        CLOUDY    57  50  77 SE6       29.66F
LONG PRAIRIE   MOCLDY    59  50  72 SE9       29.71F
LITTLE FALLS   MOCLDY    63  45  51 S9        29.71F
LITCHFIELD     CLEAR     64  54  68 S7        29.74R
BUFFALO        PTCLDY    65  52  63 S10G16    29.76S
MAPLE LAKE     PTCLDY    65  54  68 S6        29.76R
$$
MNZ037-044-045-052-053-030700-
   East Central Minnesota

CITY           SKY/WX    TMP DP  RH WIND       PRES   REMARKS
PRINCETON      FAIR      66  52  59 S9        29.75F
MORA           MOCLDY    63  45  51 S8        29.75F
CAMBRIDGE      PTCLDY    68  52  56 W6        29.75R
RUSH CITY      PTCLDY    63  48  58 CALM      29.76R
MOOSE LAKE     CLOUDY    52  43  71 S3        29.69F
HINCKLEY       FAIR      61  46  59 SW7       29.74R
CLOQUET        MOCLDY    50  41  71 CALM      29.70F
MCGREGOR       CLOUDY    63  45  51 S5        29.67F
$$
MNZ071>073-080-081-089-090-097-098-030700-
   Southwest Minnesota

CITY           SKY/WX    TMP DP  RH WIND       PRES   REMARKS
MONTEVIDEO     PTCLDY    64  52  63 SW12      29.70F
GRANITE FALLS  PTCLDY    63  53  68 SE12      29.73R
CANBY          PTCLDY    66  53  63 S13G20    29.68S
MARSHALL       CLEAR     63  50  63 S20G26    29.69F
REDWOOD FALLS  CLEAR     62  53  72 S13       29.74R
OLIVIA         CLEAR     61  50  67 S14       29.72F
PIPESTONE      CLEAR     61  54  77 S13G18    29.71F
WINDOM         CLEAR     59  52  77 SE12      29.76F
WORTHINGTON    CLEAR     59  48  67 S16       29.74F
JACKSON        CLEAR     59  50  72 S12       29.76F
TRACY          CLEAR     62  53  73 S12G21    29.71F
SLAYTON        CLEAR     58  52  83 SE12      29.73F
$$
MNZ065>067-074>077-082>085-091>093-030700-
   South Central Minnesota

CITY           SKY/WX    TMP DP  RH WIND       PRES   REMARKS
MANKATO        CLEAR     59  46  63 S10       29.79F
NEW ULM        CLEAR     61  50  67 S14       29.76F
ST JAMES       CLEAR     61  52  72 S16       29.77F
FAIRMONT       CLEAR     57  46  67 S13       29.77F
GLENCOE        CLEAR     63  55  74 S8        29.77R
FARIBAULT      CLEAR     61  52  72 S9        29.81S
OWATONNA       CLEAR     61  50  67 S13G18    29.82F
WASECA         CLEAR     57  50  77 S12       29.82F
ALBERT LEA     CLEAR     59  50  72 S9        29.83S
$$
MNZ078>079-086>088-094>096-030700-
   Southeast Minnesota

CITY           SKY/WX    TMP DP  RH WIND       PRES   REMARKS
ROCHESTER      CLEAR     57  49  74 S14       29.86F
6HR MIN TEMP:  57; 6HR MAX TEMP:  74;

RED WING       CLEAR     64  48  55 CALM      29.82R
STANTON        CLEAR     62  50  63 S8        29.80S
DODGE CENTER   CLEAR     57  50  77 S12       29.85R
WINONA         CLEAR     61  50  67 CALM      29.86S
AUSTIN         CLEAR     57  50  77 S9        29.85S
PRESTON        CLEAR     55  49  80 S9        29.87S
$$
ABBREVIATIONS USED IN REMARKS
   TC - TEMPERATURES IN CELSIUS
  WCI - WIND CHILL INDEX
   HX - HEAT INDEX
  VSB - VISIBILITY
$$



USA.gov is the U.S. government's official web portal to all federal, state and local government web resources and services.